Rbgn^[z[y[W
メイン
   新天体発見情報
     Comet C/2021 P1 (PANSTARRS)
投稿するにはまず登録を

スレッド表示 | 新しいものから 前のトピック | 次のトピック | 下へ
投稿者 スレッド
佐藤裕久
投稿日時: 2021-8-18 22:54
モデレータ
登録日: 2005-6-12
居住地: 日本
投稿: 2585
オンライン
Comet C/2021 P1 (PANSTARRS)

R. Weryk (西オンタリオ大学,物理および天文学科)の通報によると、8月9日、Haleakalaにある
Pan-STARRS1 1.8-m Ritchey-Chretien反射望遠鏡で得た画像から彗星を発見した。
45秒4枚のw-バンドサーベイ画像では、1".0のシーイングで、非常に集光した1".5 (半値全幅:
FWHM)のコマが見えるが、明らかな尾はない。しかし、スタックした画像は、北東/南西の軸に
沿って非対称の点拡散関数 (PSF)を示唆している。
WerykとR. Wainscoatによると、8月10.53日UT、H. JanuszewskiとT. Burdullisが、Mauna Keaに
ある3.6-m Canada-France-Hawaii望遠鏡で得た60秒3枚のフォローアップgri-バンド画像から、
1".1 のシーイングで、確かに彗星に見え、非常に集光した1".6 (半値全幅:FWHM)のコマとp.a. 
205°に12"以上のまっすぐな尾がある。
小惑星センターのPCCP webpageに公表後、佐藤英貴氏(東京都文京区, 8月12.78日, 60秒露出16枚
のスタック,  0.51-m f/6.8 アストログラフ, Siding Spring, NSW, オーストラリア, 遠隔操作: 
中程度に集光した6" のコマが見えるが尾はない。4".9の円形範囲で測定した光度は20.2等であった)
らCCD位置観測者によって彗星状と観測された。

彗星機能の報告は次のとおり、

OC   Date        Reporter           Coma    Tail    PA          Exposures
568  2021-08-10  R. Weryk           0".5     12"    205           3x60s
F51  2021-08-10  Y. Ramanjooloo     1".4      5"    220
Q62  2021-08-12  H. Sato            6"                           16x60s

発見位置は次のとおり、

     2021 UT             R.A. (2000) Decl.       Mag.
     July 14.55548    0 36 15.35   + 0 24 57.1   20.9
          14.56823    0 36 15.31   + 0 25 01.4   21.3
          21.56299    0 35 53.21   + 1 02 03.9   20.9
          21.57276    0 35 53.15   + 1 02 06.9   20.9
          21.58252    0 35 53.11   + 1 02 09.9   21.6
     Aug.  4.55928    0 33 13.22   + 2 11 18.2   21.2
           4.57200    0 33 12.98   + 2 11 21.8   21.2
           4.58471    0 33 12.76   + 2 11 25.4   21.0
           4.59745    0 33 12.53   + 2 11 29.1   21.2
           9.50939    0 31 38.23   + 2 34 09.6   21.7
           9.51880    0 31 38.02   + 2 34 12.2   21.6
           9.52821    0 31 37.82   + 2 34 14.8   21.7
           9.53764    0 31 37.60   + 2 34 17.3   21.6

MPCの楕円軌道要素、位置推算表は次のとおり、

Orbital elements:
    C/2021 P1 (PANSTARRS)                                                       
Epoch 2022 May 21.0 TT = JDT 2459720.5                                          
T 2022 June 1.98845 TT                                  Rudenko                 
q   4.3750050            (2000.0)            P               Q                  
z  +0.0004050      Peri.   40.39137     +0.76389957     -0.64531990             
 +/-0.0000525      Node   359.67581     +0.16298354     +0.19957462             
e   0.9982281      Incl.   51.63144     +0.62441478     +0.73738199             
From 28 observations 2021 July 14-Aug. 12, mean residual 0".2.                  
                                                                                
    C/2021 P1 (PANSTARRS)                                                       
Epoch 2021 July 5.0 TT = JDT 2459400.5                                          
T 2022 June 1.39796 TT                                  Rudenko                 
q   4.3764214            (2000.0)            P               Q                  
z  +0.0000116      Peri.   40.30944     +0.76485326     -0.64418886             
 +/-0.0000525      Node   359.67141     +0.16288800     +0.20014038             
e   0.9999493      Incl.   51.60908     +0.62327120     +0.73821713             
From 28 observations 2021 July 14-Aug. 12, mean residual 0".2.                  
                                                                                
Ephemeris:
Date    TT    R. A. (2000) Decl.     Delta      r    Elong.  Phase   m1
2021 07 17    00 36 11.8 +00 38 05   4.7146  5.0858   105.8    11.1  21.4
...
2021 08 01    00 34 09.0 +01 54 20   4.4403  5.0263   120.1    10.1  21.2
...
2021 08 09    00 31 48.9 +02 31 51   4.3064  4.9954   128.0     9.2  21.2
...
2021 08 15    00 29 29.3 +02 58 30   4.2135  4.9726   134.2     8.4  21.1
2021 08 16    00 29 03.2 +03 02 49   4.1988  4.9688   135.2     8.3  21.1
2021 08 17    00 28 36.3 +03 07 06   4.1842  4.9650   136.2     8.1  21.1
...
2021 08 23    00 25 38.7 +03 32 03   4.1017  4.9426   142.5     7.2  21.0
...
2021 08 31    00 21 00.9 +04 03 21   4.0056  4.9133   151.1     5.7  20.9
...
2021 09 15    00 10 37.1 +04 56 16   3.8741  4.8599   167.2     2.6  20.8

(MPEC 2021-Q02、CBET 5020)

スレッド表示 | 新しいものから 前のトピック | 次のトピック | トップ

投稿するにはまず登録を
 
© 1999 Tsutomu Seki.